Regional Weather Roundup
Issued by NWS

Home | Current Version | Previous Version | Graphics & Text | Print | Product List | Glossary On
Versions: 1 2 3 4 5 6 7 8 9 10 11 12 13 14 15 16 17 18 19 20 21 22 23 24 25 26 27 28 29 30 31 32 33 34 35 36 37 38 39 40 41 42 43 44 45 46 47 48 49 50
000
ASUS43 KMPX 301110
RWRMN
WEATHER ROUNDUP FOR MINNESOTA
NATIONAL WEATHER SERVICE TWIN CITIES/CHANHASSEN MN
600 AM CDT WED JUL 30 2014


NOTE: "FAIR" INDICATES FEW OR NO CLOUDS BELOW 12,000 FEET WITH NO
SIGNIFICANT WEATHER AND/OR OBSTRUCTIONS TO VISIBILITY. N/A MEANS
CURRENT SKY AND/OR WEATHER CONDITIONS ARE NOT AVAILABLE.

MNZ060>063-068>070-301200-
   Twin Cities Metro

CITY           SKY/WX    TMP DP  RH WIND       PRES   REMARKS
TWIN CITIES    PTCLDY    60  56  86 CALM      30.08R
ST PAUL        CLEAR     59  58  96 CALM      30.08R
CRYSTAL        CLEAR     60  55  83 CALM      30.07R
BLAINE         CLEAR     59  57  94 CALM      30.08R
LAKEVILLE      CLEAR     57  55  94 W3        30.08R
EDEN PRAIRIE   CLEAR     60  56  86 NW5       30.07S
SOUTH ST PAUL  CLEAR     58  56  92 CALM      30.08R
LAKE ELMO      FAIR      54  54 100 CALM      30.08S FOG
$$
MNZ001>005-007-008-013>017-022>024-027-028-301200-
   Northwest Minnesota

CITY           SKY/WX    TMP DP  RH WIND       PRES   REMARKS
BEMIDJI        CLEAR     53  51  94 W6        30.11R
HALLOCK        CLEAR     54  52  94 CALM      30.11S
ROSEAU         CLEAR     57  52  82 W7        30.10R
WARROAD        PTCLDY    57  54  88 W6        30.09S
THIEF RVR FALL CLEAR     57  54  88 CALM      30.12R
CROOKSTON      CLEAR     54  52  94 NW3       30.13R
FOSSTON        CLEAR     48  46  93 S3        30.13R FOG
DETROIT LAKES  CLEAR     59  54  82 CALM      30.14S
MOORHEAD       CLEAR     55  55 100 CALM      30.14S
PARK RAPIDS    CLEAR     53  51  93 NW3       30.11S
$$
MNZ006-009>011-018-025>026-301200-
   North Central Minnesota

CITY           SKY/WX    TMP DP  RH WIND       PRES   REMARKS
BAUDETTE       CLEAR     58  55  90 VRB5      30.08R
FLAG ISLAND    CLEAR     63  57  82 W7        30.05S
INTL FALLS     PTCLDY    49  48  97 CALM      30.05S
WASKISH        CLOUDY    61  57  88 W6        30.08R
BIG FORK       CLEAR     48  46  93 CALM      30.08S
LONGVILLE      PTCLDY    55  54  94 CALM      30.09R
GRAND RAPIDS     N/A     54  50  87 CALM      30.08S VSB 1/4
CRANE LAKE     PTCLDY    45  45 100 CALM      30.08R FOG
ORR            CLEAR     52  48  87 CALM      30.05S FOG
COOK           MOCLDY    46  46 100 CALM      30.08R FOG
$$
MNZ012-019>021-037-301200-
   Northeast Minnesota

CITY           SKY/WX    TMP DP  RH WIND       PRES   REMARKS
DULUTH         MOCLDY    50  47  89 CALM      30.08S FOG
ELY            FOG       50  50 100 CALM      30.07S VSB<1/4
HIBBING        FOG       47  45  93 CALM      30.08S VSB 1/4
EVELETH        FOG       46  45  93 CALM      30.09S VSB<1/4
DULUTH HARBOR  CLEAR     55  54  94 CALM      30.08S
TWO HARBORS      N/A     46  43  87 CALM      30.06S HAZE
SILVER BAY     CLEAR     43  43 100 CALM      30.06R
GRAND MARAIS     N/A     48  46  93 CALM      30.05R
G MARAIS ARPRT CLEAR     39  37  93 CALM      30.07S
$$
MNZ029>031-032-039>041-046>048-054>057-064-301200-
   West Central Minnesota

CITY           SKY/WX    TMP DP  RH WIND       PRES   REMARKS
FERGUS FALLS   CLEAR     54  52  94 CALM      30.13S
WHEATON        CLEAR     54  52  94 CALM      30.15S
MORRIS         CLEAR     52  50  93 NW5       30.12S FOG
ALEXANDRIA     CLEAR     59  55  87 NW6       30.14R
ELBOW LAKE     FAIR      56  53  92 NW5       30.13S
WADENA         CLEAR     55  54  94 CALM      30.12R
GLENWOOD       CLEAR     57  54  88 NW6       30.13R
APPLETON       CLEAR     54  52  94 W3        30.12S FOG
BENSON         CLEAR     52  52 100 CALM      30.13R
ORTONVILLE     CLEAR     57  55  94 NW3       30.13S
MADISON        CLEAR     54  52  94 CALM      30.13S
WILLMAR        FAIR      55  52  88 CALM      30.13S
$$
MNZ033>034-036-042>043-049>051-058-059-301200-
   Central Minnesota

CITY           SKY/WX    TMP DP  RH WIND       PRES   REMARKS
ST CLOUD       CLEAR     58  54  86 CALM      30.09R
SAUK CENTRE    FAIR      53  52  97 W3        30.12R
PAYNESVILLE    CLEAR     50  50 100 CALM      30.11S
AITKIN         HAZE      54  46  76 CALM      30.08R VSB 1/4
PINE RIVER     MOCLDY    52  52 100 CALM      30.13S
BRAINERD       CLEAR     52  52 100 CALM      30.10R
STAPLES        CLEAR     54  52  94 CALM      30.11S
LONG PRAIRIE   FAIR      57  52  82 NW3       30.12R
LITTLE FALLS   CLEAR     52  50  93 CALM      30.10S
LITCHFIELD     CLEAR     61  57  88 W5        30.11S
BUFFALO        CLEAR     60  55  83 CALM      30.10R
MAPLE LAKE     CLEAR     60  56  88 NW3       30.10R
$$
MNZ037-044-045-052-053-301200-
   East Central Minnesota

CITY           SKY/WX    TMP DP  RH WIND       PRES   REMARKS
PRINCETON      FOG       54  52  94 CALM      30.09R VSB 3/4
MORA           CLEAR     54  52  94 CALM      30.10R
CAMBRIDGE      CLEAR     55  48  76 CALM      30.06S
RUSH CITY      MOCLDY    52  51  96 CALM      30.08R
MOOSE LAKE     FOG       50  50 100 CALM      30.07R VSB 1/2
HINCKLEY       FAIR      54  54 100 CALM      30.08S
CLOQUET        CLEAR     50  48  93 CALM      30.08S FOG
MCGREGOR       CLEAR     52  52 100 CALM      30.09R
$$
MNZ071>073-080-081-089-090-097-098-301200-
   Southwest Minnesota

CITY           SKY/WX    TMP DP  RH WIND       PRES   REMARKS
MONTEVIDEO     CLEAR     54  52  94 NW5       30.13S
GRANITE FALLS  CLEAR     51  50  97 W6        30.14S
CANBY          CLEAR     55  51  88 W5        30.15R
MARSHALL       CLEAR     54  48  82 W6        30.12S
REDWOOD FALLS  CLEAR     55  53  93 NW7       30.11S
OLIVIA         CLEAR     55  52  88 NW3       30.11S
PIPESTONE      CLEAR     55  52  88 CALM      30.15S
WINDOM         CLEAR     54  52  94 W6        30.13R
WORTHINGTON    CLEAR     54  48  82 W5        30.15R
JACKSON        CLEAR     54  50  87 W5        30.13S
TRACY          CLEAR     58  53  82 W3        30.14R
SLAYTON        CLEAR     53  51  94 CALM      30.15S
$$
MNZ065>067-074>077-082>085-091>093-301200-
   South Central Minnesota

CITY           SKY/WX    TMP DP  RH WIND       PRES   REMARKS
MANKATO        CLEAR     55  50  82 W3        30.10R
NEW ULM        CLEAR     54  54 100 W6        30.10S
ST JAMES       CLEAR     55  52  88 W7        30.12S
FAIRMONT       CLEAR     55  50  82 NW6       30.11S
GLENCOE        CLEAR     59  53  82 W3        30.09S
FARIBAULT      CLEAR     55  52  88 CALM      30.09R
OWATONNA       CLEAR     52  50  93 CALM      30.09S
WASECA         CLEAR     50  46  87 CALM      30.11S
ALBERT LEA     CLEAR     55  54  94 CALM      30.09S
$$
MNZ078>079-086>088-094>096-301200-
   Southeast Minnesota

CITY           SKY/WX    TMP DP  RH WIND       PRES   REMARKS
ROCHESTER      CLEAR     56  54  93 W7        30.09R
RED WING       CLOUDY    55  54  94 CALM      30.07R FOG
STANTON        CLEAR     55  52  90 CALM      30.07S
DODGE CENTER   CLEAR     59  55  88 NW7       30.08S
WINONA         CLEAR     57  55  94 CALM      30.07R
AUSTIN         CLEAR     57  54  88 NW6       30.08S
PRESTON        CLEAR     56  56 100 NW7       30.08R
$$
ABBREVIATIONS USED IN REMARKS
   TC - TEMPERATURES IN CELSIUS
  WCI - WIND CHILL INDEX
   HX - HEAT INDEX
  VSB - VISIBILITY
$$


USA.gov is the U.S. government's official web portal to all federal, state and local government web resources and services.